Wink, TX

4:35 PM CDT on June 25, 2017 (GMT -0500)
Winkler County

Weather History for KINK - September, 2012

Change the Weather History Date:

Saturday, September 1, 2012

  Actual Average Record
Temperature  
Mean Temperature 84 °F -  
Max Temperature 98 °F 91 °F 109 °F (1959)
Min Temperature 70 °F 66 °F 56 °F (1987)
Cooling Degree Days 19    
Growing Degree Days 34 (Base 50)    
Moisture  
Dew Point 52 °F    
Average Humidity 36    
Maximum Humidity 62    
Minimum Humidity 19    
Precipitation  
Precipitation 0.00 in - - ()
Sea Level Pressure  
Sea Level Pressure 29.90 in    
Wind  
Wind Speed 7 mph (SE)    
Max Wind Speed 17 mph    
Max Gust Speed 24 mph    
Visibility 10 miles    
Events      
Averages and records for this station are not official NWS values.
T = Trace of Precipitation, MM = Missing Value Source: NWS Daily Summary

Daily Weather History Graph

Daily Weather History Graph

Search for Another Location

Airport or City:

Trip Planner

Search our weather history database for the weather conditions in past years. The results will help you decide how hot, cold, wet, or windy it might be!

Date:

Astronomy

Sep. 01, 2012 Rise Set
Actual Time 7:28 AM CDT 8:16 PM CDT
Civil Twilight 7:03 AM CDT 8:40 PM CDT
Nautical Twilight 6:34 AM CDT 9:10 PM CDT
Astronomical Twilight 6:04 AM CDT 9:39 PM CDT
Moon 8:44 PM CDT (9/1) 8:30 AM CDT (9/1)
Length of Visible Light 13h 36m
Length of Day
12h 47m
Full, 99% of the Moon is Illuminated
Sep 1
Full
Sep 8
Last Quarter
Sep 15
New
Sep 22
First Quarter
Sep 29
Full

Hourly Weather History & Observations

Time (CDT) Temp. Heat Index Dew Point Humidity Pressure Visibility Wind Dir Wind Speed Gust Speed Precip Events Conditions
12:53 AM 75.9 °F - 46.0 °F 35% 29.89 in 10.0 mi East 6.9 mph - N/A   Clear
1:53 AM 75.0 °F - 46.9 °F 37% 29.89 in 10.0 mi ESE 5.8 mph - N/A   Clear
2:53 AM 73.0 °F - 46.9 °F 39% 29.89 in 10.0 mi ENE 3.5 mph - N/A   Clear
3:53 AM 71.1 °F - 46.9 °F 42% 29.89 in 10.0 mi NE 3.5 mph - N/A   Clear
4:53 AM 70.0 °F - 48.0 °F 46% 29.90 in 10.0 mi Calm Calm - N/A   Clear
5:53 AM 73.0 °F - 51.1 °F 46% 29.90 in 10.0 mi ESE 9.2 mph - N/A   Clear
6:53 AM 71.1 °F - 53.1 °F 53% 29.92 in 10.0 mi ESE 5.8 mph - N/A   Clear
7:53 AM 70.0 °F - 55.9 °F 61% 29.95 in 10.0 mi East 4.6 mph - N/A   Partly Cloudy
8:53 AM 75.9 °F - 62.1 °F 62% 29.96 in 10.0 mi ESE 4.6 mph - N/A   Clear
9:53 AM 81.0 °F 82.5 °F 64.0 °F 56% 29.97 in 10.0 mi SE 12.7 mph - N/A   Clear
10:53 AM 84.9 °F 85.4 °F 62.1 °F 46% 29.97 in 10.0 mi SSE 10.4 mph - N/A   Clear
11:53 AM 90.0 °F 88.1 °F 55.9 °F 31% 29.96 in 10.0 mi SE 10.4 mph - N/A   Clear
12:53 PM 93.0 °F - 51.1 °F 24% 29.94 in 10.0 mi South 11.5 mph 16.1 mph N/A   Clear
1:53 PM 93.0 °F - 52.0 °F 25% 29.92 in 10.0 mi SE 12.7 mph 16.1 mph N/A   Mostly Cloudy
2:53 PM 97.0 °F - 50.0 °F 20% 29.89 in 10.0 mi SE 11.5 mph 21.9 mph N/A   Clear
3:53 PM 93.9 °F - 50.0 °F 22% 29.88 in 10.0 mi SE 9.2 mph 19.6 mph N/A   Mostly Cloudy
4:53 PM 98.1 °F - 48.9 °F 19% 29.85 in 10.0 mi SSE 12.7 mph 19.6 mph N/A   Partly Cloudy
5:53 PM 97.0 °F - 50.0 °F 20% 29.84 in 10.0 mi SSE 17.3 mph 24.2 mph N/A   Partly Cloudy
6:53 PM 96.1 °F - 48.9 °F 20% 29.84 in 10.0 mi SSE 8.1 mph - N/A   Clear
7:53 PM 93.0 °F - 50.0 °F 23% 29.84 in 10.0 mi SSE 11.5 mph - N/A   Clear
8:53 PM 87.1 °F - 50.0 °F 28% 29.86 in 10.0 mi SE 6.9 mph - N/A   Clear
9:53 PM 84.0 °F - 51.1 °F 32% 29.88 in 10.0 mi SE 6.9 mph - N/A   Clear
10:53 PM 82.9 °F 81.8 °F 53.1 °F 36% 29.88 in 10.0 mi SSE 9.2 mph - N/A   Clear
11:53 PM 82.0 °F 81.4 °F 55.0 °F 39% 29.88 in 10.0 mi SSE 10.4 mph - N/A   Clear